This is the latest recevied weather packets stored in our database for station/object SP9KB-13. If no packets are shown the sender has not sent any weather packets the latest 10 day(s).
| Time | Temp. | Humidity | Pressure | Rain* | Wind** | Luminosity | Snow |
|---|---|---|---|---|---|---|---|
| 1777900420 | 24.44° C | 29% | 996.6 hPa | 0 mm | - | - | - |
| 1777900119 | 24.44° C | 30% | 996.5 hPa | 0 mm | - | - | - |
| 1777899818 | 25.56° C | 28% | 996.7 hPa | 0 mm | - | - | - |
| 1777899517 | 25° C | 30% | 996.8 hPa | 0 mm | - | - | - |
| 1777899217 | 25° C | 29% | 996.6 hPa | 0 mm | - | - | - |
| 1777898916 | 24.44° C | 33% | 997.1 hPa | 0 mm | - | - | - |
| 1777898616 | 24.44° C | 30% | 997 hPa | 0 mm | - | - | - |
| 1777898315 | 24.44° C | 30% | 996.9 hPa | 0 mm | - | - | - |
| 1777898014 | 24.44° C | 30% | 996.9 hPa | 0 mm | - | - | - |
| 1777897714 | 23.89° C | 31% | 996.8 hPa | 0 mm | - | - | - |
| 1777897413 | 23.33° C | 31% | 996.9 hPa | 0 mm | - | - | - |
| 1777897113 | 24.44° C | 30% | 997.2 hPa | 0 mm | - | - | - |
| 1777896812 | 24.44° C | 31% | 997.1 hPa | 0 mm | - | - | - |
| 1777896511 | 23.89° C | 31% | 997.4 hPa | 0 mm | - | - | - |
| 1777896211 | 24.44° C | 34% | 997.1 hPa | 0 mm | - | - | - |
| 1777895910 | 24.44° C | 32% | 997.3 hPa | 0 mm | - | - | - |
| 1777895610 | 24.44° C | 33% | 997.6 hPa | 0 mm | - | - | - |
| 1777895309 | 23.89° C | 32% | 997.3 hPa | 0 mm | - | - | - |
| 1777895008 | 23.33° C | 33% | 997.6 hPa | 0 mm | - | - | - |
| 1777894708 | 23.89° C | 32% | 997.7 hPa | 0 mm | - | - | - |
| 1777894407 | 23.33° C | 33% | 997.3 hPa | 0 mm | - | - | - |
| 1777894107 | 23.89° C | 33% | 997.7 hPa | 0 mm | - | - | - |
| 1777893806 | 23.33° C | 33% | 997.7 hPa | 0 mm | - | - | - |
| 1777893505 | 23.89° C | 32% | 997.7 hPa | 0 mm | - | - | - |
| 1777893205 | 23.89° C | 34% | 997.6 hPa | 0 mm | - | - | - |
* Rain latest hour (hover to see other rain measurements)
** Current wind speed in m/s (hover to see current wind gust speed)